TimeCST,TemperatureF,Dew PointF,Humidity,Sea Level PressureIn,VisibilityMPH,Wind Direction,Wind SpeedMPH,Gust SpeedMPH,PrecipitationIn,Events,Conditions,WindDirDegrees,DateUTC
12:15 AM,27.7,22.8,82,30.26,10.0,West,5.8,-,N/A,,Clear,270,2013-01-17 06:15:00
12:35 AM,28.4,22.5,78,30.27,10.0,West,3.5,-,N/A,,Clear,270,2013-01-17 06:35:00
12:55 AM,27.5,21.9,80,30.28,10.0,West,4.6,-,N/A,,Clear,280,2013-01-17 06:55:00
1:15 AM,27.1,21.7,80,30.28,10.0,West,4.6,-,N/A,,Clear,280,2013-01-17 07:15:00
1:35 AM,25.9,20.8,81,30.29,10.0,SW,5.8,-,N/A,,Clear,220,2013-01-17 07:35:00
1:55 AM,25.7,21.0,82,30.30,10.0,West,5.8,-,N/A,,Clear,270,2013-01-17 07:55:00
2:15 AM,24.6,20.3,84,30.31,10.0,WNW,3.5,-,N/A,,Clear,300,2013-01-17 08:15:00
2:35 AM,25.3,21.0,84,30.32,10.0,WNW,5.8,-,N/A,,Clear,290,2013-01-17 08:35:00
2:55 AM,26.4,21.2,81,30.32,10.0,West,8.1,-,N/A,,Clear,280,2013-01-17 08:55:00
3:35 AM,27.1,21.0,78,30.33,10.0,West,6.9,-,N/A,,Clear,270,2013-01-17 09:35:00
3:55 AM,25.5,20.3,81,30.33,10.0,WNW,4.6,-,N/A,,Clear,290,2013-01-17 09:55:00
4:15 AM,24.8,19.9,82,30.33,10.0,WNW,6.9,-,N/A,,Clear,290,2013-01-17 10:15:00
4:35 AM,25.0,19.8,81,30.33,10.0,West,6.9,-,N/A,,Clear,280,2013-01-17 10:35:00
4:55 AM,25.2,19.8,80,30.33,10.0,WNW,9.2,-,N/A,,Clear,290,2013-01-17 10:55:00
5:15 AM,25.3,19.9,80,30.33,10.0,West,9.2,-,N/A,,Clear,280,2013-01-17 11:15:00
5:35 AM,25.9,20.3,79,30.34,10.0,West,5.8,-,N/A,,Clear,280,2013-01-17 11:35:00
6:15 AM,25.2,19.2,78,30.34,10.0,West,6.9,-,N/A,,Clear,280,2013-01-17 12:15:00
6:35 AM,24.6,18.5,78,30.35,10.0,West,5.8,-,N/A,,Clear,280,2013-01-17 12:35:00
6:55 AM,23.7,18.1,79,30.35,10.0,WNW,3.5,-,N/A,,Clear,300,2013-01-17 12:55:00
7:15 AM,23.0,17.8,80,30.36,10.0,West,8.1,-,N/A,,Clear,270,2013-01-17 13:15:00
7:35 AM,23.9,18.1,79,30.36,10.0,West,6.9,-,N/A,,Clear,280,2013-01-17 13:35:00
7:55 AM,23.4,17.6,79,30.36,10.0,West,5.8,-,N/A,,Clear,270,2013-01-17 13:55:00
8:15 AM,23.2,17.6,79,30.36,10.0,West,4.6,-,N/A,,Clear,270,2013-01-17 14:15:00
8:35 AM,22.3,17.2,81,30.37,10.0,West,4.6,-,N/A,,Clear,280,2013-01-17 14:35:00
8:55 AM,24.8,18.3,76,30.39,10.0,WNW,5.8,-,N/A,,Clear,290,2013-01-17 14:55:00
9:15 AM,27.3,19.4,72,30.39,10.0,WNW,6.9,-,N/A,,Clear,290,2013-01-17 15:15:00
9:35 AM,28.8,20.1,70,30.40,10.0,WNW,9.2,-,N/A,,Clear,290,2013-01-17 15:35:00
9:55 AM,30.7,20.8,67,30.41,10.0,WNW,6.9,-,N/A,,Clear,290,2013-01-17 15:55:00
10:15 AM,32.9,21.7,64,30.41,10.0,WNW,6.9,-,N/A,,Clear,300,2013-01-17 16:15:00
10:35 AM,34.7,22.8,62,30.41,10.0,WNW,9.2,-,N/A,,Clear,290,2013-01-17 16:35:00
10:55 AM,36.7,22.6,57,30.41,10.0,West,8.1,-,N/A,,Clear,280,2013-01-17 16:55:00
11:15 AM,38.7,22.6,53,30.40,10.0,West,5.8,-,N/A,,Clear,260,2013-01-17 17:15:00
11:35 AM,40.1,21.4,47,30.39,10.0,WNW,5.8,-,N/A,,Clear,290,2013-01-17 17:35:00
11:55 AM,41.5,21.2,44,30.38,10.0,WNW,5.8,-,N/A,,Clear,300,2013-01-17 17:55:00
12:15 PM,42.6,21.4,43,30.37,10.0,NW,3.5,-,N/A,,Clear,320,2013-01-17 18:15:00
12:35 PM,44.6,21.0,39,30.36,10.0,West,4.6,-,N/A,,Clear,270,2013-01-17 18:35:00
12:55 PM,46.0,20.8,37,30.35,10.0,West,5.8,-,N/A,,Clear,260,2013-01-17 18:55:00
1:15 PM,47.5,21.0,35,30.35,10.0,WNW,10.4,-,N/A,,Clear,290,2013-01-17 19:15:00
1:35 PM,47.1,21.0,36,30.33,10.0,West,10.4,-,N/A,,Clear,260,2013-01-17 19:35:00
1:55 PM,48.4,20.8,34,30.32,10.0,WNW,10.4,-,N/A,,Clear,290,2013-01-17 19:55:00
2:15 PM,48.9,20.5,33,30.31,10.0,West,10.4,-,N/A,,Clear,280,2013-01-17 20:15:00
2:35 PM,49.1,20.5,32,30.30,10.0,West,10.4,-,N/A,,Clear,270,2013-01-17 20:35:00
2:55 PM,49.1,20.3,32,30.29,10.0,West,11.5,-,N/A,,Clear,280,2013-01-17 20:55:00
3:15 PM,49.6,20.1,31,30.28,10.0,WNW,12.7,-,N/A,,Clear,290,2013-01-17 21:15:00
3:35 PM,50.0,20.7,32,30.28,10.0,West,12.7,17.3,N/A,,Clear,270,2013-01-17 21:35:00
3:55 PM,49.1,20.5,32,30.28,10.0,West,12.7,18.4,N/A,,Clear,270,2013-01-17 21:55:00
4:55 PM,47.1,22.1,37,30.28,10.0,West,9.2,-,N/A,,Clear,260,2013-01-17 22:55:00
5:35 PM,41.9,22.5,46,30.27,10.0,WSW,5.8,-,N/A,,Clear,240,2013-01-17 23:35:00
7:55 PM,35.6,23.9,62,30.23,10.0,SSW,9.2,-,N/A,,Clear,200,2013-01-18 01:55:00
8:15 PM,34.7,23.7,64,30.22,10.0,Calm,Calm,-,N/A,,Clear,0,2013-01-18 02:15:00
8:55 PM,35.2,22.8,61,30.20,10.0,SSW,10.4,-,N/A,,Clear,200,2013-01-18 02:55:00
9:15 PM,36.5,23.0,58,30.20,10.0,SSW,11.5,-,N/A,,Clear,210,2013-01-18 03:15:00
9:35 PM,36.7,23.0,58,30.20,10.0,SSW,8.1,-,N/A,,Clear,210,2013-01-18 03:35:00
9:55 PM,36.5,22.8,58,30.19,10.0,SSW,11.5,-,N/A,,Clear,210,2013-01-18 03:55:00
11:15 PM,35.8,22.1,58,30.16,10.0,SSW,6.9,-,N/A,,Clear,210,2013-01-18 05:15:00
11:35 PM,34.3,22.1,61,30.16,10.0,Calm,Calm,-,N/A,,Clear,0,2013-01-18 05:35:00
11:55 PM,32.2,21.6,65,30.15,10.0,Calm,Calm,-,N/A,,Clear,0,2013-01-18 05:55:00